Weather History for Detroit Metro, MI

Change the Weather History Date:

Wednesday, June 5, 2013

  Actual Average Record
Temperature  
Mean Temperature 64 °F 66 °F  
Max Temperature 74 °F 76 °F 96 °F (1925)
Min Temperature 53 °F 56 °F 38 °F (1945)
Degree Days  
Heating Degree Days 1 2  
Month to date heating degree days 13 13  
Since 1 June heating degree days 13 13  
Since 1 July heating degree days 5919 6115  
Cooling Degree Days 0 4  
Month to date cooling degree days 8 16  
Year to date cooling degree days 111 64  
Since 1 June cooling degree days 8 16  
Growing Degree Days 13 (Base 50)    
Moisture  
Dew Point 41 °F    
Average Humidity 43    
Maximum Humidity 59    
Minimum Humidity 27    
Precipitation  
Precipitation 0.00 in 0.12 in 2.00 in (1905)
Month to date precipitation 0.09 0.58  
Year to date precipitation 14.94 13.12  
Snow  
Snow 0.00 in 0.00 in 0.00 in ()
Month to date snowfall 0.0 0.0  
Since 1 June snowfall 0.0 0.0  
Since 1 July snowfall 47.7 42.5  
Snow Depth 0.00 in    
Sea Level Pressure  
Sea Level Pressure 30.11 in    
Wind  
Wind Speed 6 mph (NE)    
Max Wind Speed 13 mph    
Max Gust Speed 21 mph    
Visibility 10 miles    
Events      
T = Trace of Precipitation, MM = Missing Value Source: NWS Daily Summary

Daily Weather History Graph

Daily Weather History Graph

Search for Another Location

Airport:

Trip Planner

Search our weather history database for the weather conditions in past years. The results will help you decide how hot, cold, wet, or windy it might be!

Date:

Astronomy

Jun. 05, 2013 Rise Set
Actual Time 5:57 AM EDT 9:06 PM EDT
Civil Twilight 5:23 AM EDT 9:40 PM EDT
Nautical Twilight 4:39 AM EDT 10:24 PM EDT
Astronomical Twilight 3:47 AM EDT 11:16 PM EDT
Moon 4:04 AM EDT (6/5) 6:29 PM EDT (6/5)
Length of Visible Light 16h 16m
Length of Day
15h 08m
Waning Crescent, 8% of the Moon is Illuminated
Jun 5
Waning Crescent
Jun 8
New
Jun 16
First Quarter
Jun 23
Full
Jun 30
Last Quarter

Hourly Weather History & Observations

Time (EDT) Temp. Dew Point Humidity Pressure Visibility Wind Dir Wind Speed Gust Speed Precip Events Conditions
12:53 AM 57.9 °F 33.1 °F 39% 30.18 in 10.0 mi Calm Calm - N/A   Overcast
1:53 AM 57.0 °F 35.1 °F 44% 30.19 in 10.0 mi Calm Calm - N/A   Overcast
2:53 AM 54.0 °F 37.0 °F 53% 30.18 in 10.0 mi NNE 3.5 mph - N/A   Overcast
3:53 AM 53.1 °F 39.0 °F 59% 30.17 in 10.0 mi North 4.6 mph - N/A   Overcast
4:53 AM 54.0 °F 37.9 °F 55% 30.17 in 10.0 mi North 5.8 mph - N/A   Overcast
5:53 AM 55.0 °F 37.0 °F 51% 30.17 in 10.0 mi NE 4.6 mph - N/A   Overcast
6:53 AM 54.0 °F 39.0 °F 57% 30.18 in 10.0 mi North 6.9 mph - N/A   Overcast
7:53 AM 57.0 °F 41.0 °F 55% 30.19 in 10.0 mi NE 3.5 mph - N/A   Overcast
8:53 AM 60.1 °F 44.1 °F 55% 30.18 in 10.0 mi NNE 4.6 mph - N/A   Overcast
9:53 AM 63.0 °F 45.0 °F 52% 30.18 in 10.0 mi NE 8.1 mph - N/A   Mostly Cloudy
10:53 AM 66.9 °F 44.1 °F 44% 30.15 in 10.0 mi NE 5.8 mph - N/A   Scattered Clouds
11:53 AM 68.0 °F 46.0 °F 45% 30.12 in 10.0 mi Variable 5.8 mph - N/A   Scattered Clouds
12:53 PM 69.1 °F 44.1 °F 40% 30.12 in 10.0 mi East 6.9 mph - N/A   Mostly Cloudy
1:53 PM 70.0 °F 46.0 °F 42% 30.10 in 10.0 mi Calm Calm - N/A   Mostly Cloudy
2:53 PM 72.0 °F 46.0 °F 40% 30.08 in 10.0 mi East 11.5 mph 17.3 mph N/A   Mostly Cloudy
3:53 PM 72.0 °F 45.0 °F 38% 30.06 in 10.0 mi ENE 6.9 mph 16.1 mph N/A   Scattered Clouds
4:53 PM 73.0 °F 44.1 °F 35% 30.04 in 10.0 mi NNE 11.5 mph 20.7 mph N/A   Mostly Cloudy
5:53 PM 72.0 °F 37.9 °F 29% 30.04 in 10.0 mi ENE 10.4 mph - N/A   Mostly Cloudy
6:53 PM 71.1 °F 36.0 °F 28% 30.02 in 10.0 mi NE 9.2 mph - N/A   Mostly Cloudy
7:53 PM 68.0 °F 41.0 °F 37% 30.01 in 10.0 mi East 6.9 mph - N/A   Mostly Cloudy
8:53 PM 66.0 °F 41.0 °F 40% 30.01 in 10.0 mi East 4.6 mph - N/A   Mostly Cloudy
9:53 PM 66.0 °F 44.1 °F 45% 30.01 in 10.0 mi NE 8.1 mph - N/A   Mostly Cloudy
10:53 PM 63.0 °F 45.0 °F 52% 30.02 in 10.0 mi Calm Calm - N/A   Mostly Cloudy
11:53 PM 62.1 °F 45.0 °F 53% 30.02 in 10.0 mi NNE 5.8 mph - N/A   Mostly Cloudy